Santa Rosa, CA

5:05 PM PDT on March 29, 2017 (GMT -0700)
Sonoma County

Weather History for KSTS - February, 2010

Change the Weather History Date:

Wednesday, February 10, 2010

  Actual Average Record
Temperature  
Mean Temperature 46 °F 49 °F  
Max Temperature 57 °F 60 °F 72 °F (2016)
Min Temperature 34 °F 39 °F 27 °F (2009)
Degree Days  
Heating Degree Days 19    
Month to date heating degree days 162  
Since 1 July heating degree days 1931  
Cooling Degree Days 0    
Month to date cooling degree days 0  
Year to date cooling degree days 0  
Moisture  
Dew Point 39 °F    
Average Humidity 86    
Maximum Humidity 100    
Minimum Humidity 71    
Precipitation  
Precipitation T in 0.21 in 1.44 in (2007)
Month to date precipitation 3.12 2.08  
Year to date precipitation 15.71 9.13  
Since 1 July precipitation 23.79  
Sea Level Pressure  
Sea Level Pressure 30.03 in    
Wind  
Wind Speed 2 mph (WSW)    
Max Wind Speed 8 mph    
Max Gust Speed 10 mph    
Visibility 4 miles    
Events Fog , Rain    
T = Trace of Precipitation, MM = Missing Value Source: NWS Daily Summary

Daily Weather History Graph

Daily Weather History Graph

Search for Another Location

Airport or City:

Trip Planner

Search our weather history database for the weather conditions in past years. The results will help you decide how hot, cold, wet, or windy it might be!

Date:

Astronomy

Feb. 10, 2010 Rise Set
Actual Time 7:07 AM PST 5:43 PM PST
Civil Twilight 6:40 AM PST 6:11 PM PST
Nautical Twilight 6:09 AM PST 6:42 PM PST
Astronomical Twilight 5:38 AM PST 7:13 PM PST
Moon 5:08 AM PST (2/10) 2:47 PM PST (2/10)
Length of Visible Light 11h 31m
Length of Day
10h 36m
Waning Crescent, 9% of the Moon is Illuminated
Feb 10
Waning Crescent
Feb 13
New
Feb 21
First Quarter
Feb 28
Full
Mar 7
Last Quarter

Hourly Weather History & Observations

Time (PST) Temp. Windchill Dew Point Humidity Pressure Visibility Wind Dir Wind Speed Gust Speed Precip Events Conditions
12:08 AM 37.4 °F - 37.4 °F 100% 29.99 in 0.5 mi Calm Calm - N/A Fog Fog
12:15 AM 37.4 °F 34.9 °F 37.4 °F 100% 29.99 in 1.2 mi NNW 3.5 mph - N/A   Partly Cloudy
12:20 AM 37.4 °F 33.8 °F 37.4 °F 100% 29.99 in 3.0 mi NW 4.6 mph - N/A   Partly Cloudy
12:27 AM 37.4 °F 33.8 °F 37.4 °F 100% 29.99 in 1.8 mi WNW 4.6 mph - N/A   Partly Cloudy
12:44 AM 37.4 °F 34.9 °F 37.4 °F 100% 29.99 in 3.0 mi West 3.5 mph - N/A   Clear
12:50 AM 37.4 °F - 37.4 °F 100% 29.99 in 2.0 mi Calm Calm - N/A   Partly Cloudy
12:53 AM 37.0 °F - 37.0 °F 100% 29.97 in 1.0 mi Calm Calm - N/A   Mist
1:00 AM 37.4 °F - 37.4 °F 100% 29.99 in 0.5 mi Calm Calm - N/A Fog Fog
1:17 AM 35.6 °F - 35.6 °F 100% 29.99 in 1.0 mi Calm Calm - N/A   Mist
1:25 AM 35.6 °F - 35.6 °F 100% 29.99 in 0.8 mi Calm Calm - N/A   Mist
1:28 AM 37.4 °F 34.9 °F 37.4 °F 100% 29.99 in 1.2 mi NE 3.5 mph - N/A   Partly Cloudy
1:33 AM 35.6 °F 30.7 °F 35.6 °F 100% 29.99 in 3.0 mi NE 5.8 mph - N/A   Clear
1:53 AM 37.0 °F - 37.0 °F 100% 29.98 in 8.0 mi Calm Calm - N/A   Clear
2:02 AM 37.4 °F - 37.4 °F 100% 30.00 in 6.0 mi Calm Calm - N/A   Partly Cloudy
2:06 AM 35.6 °F 32.8 °F 35.6 °F 100% 30.00 in 1.5 mi NNW 3.5 mph - N/A   Partly Cloudy
2:09 AM 35.6 °F 32.8 °F 35.6 °F 100% 30.00 in 0.8 mi NW 3.5 mph - N/A   Mist
2:30 AM 35.6 °F - 35.6 °F 100% 30.00 in 1.2 mi Calm Calm - N/A   Scattered Clouds
2:35 AM 35.6 °F - 35.6 °F 100% 30.00 in 0.8 mi Calm Calm - N/A   Mist
2:53 AM 35.1 °F - 35.1 °F 100% 29.97 in 1.2 mi Calm Calm - N/A   Partly Cloudy
2:59 AM 35.6 °F - 35.6 °F 100% 29.98 in 0.8 mi Calm Calm - N/A   Mist
3:06 AM 35.6 °F - 35.6 °F 100% 29.98 in 1.2 mi Calm Calm - N/A   Scattered Clouds
3:13 AM 35.6 °F - 35.6 °F 100% 29.99 in 0.8 mi Calm Calm - N/A   Mostly Cloudy
3:46 AM 35.6 °F - 33.8 °F 93% 29.99 in 0.2 mi Calm Calm - N/A Fog Fog
3:53 AM 34.0 °F - 34.0 °F 100% 29.97 in 0.2 mi Calm Calm - N/A Fog Fog
4:05 AM 33.8 °F - 33.8 °F 100% 29.98 in 0.5 mi Calm Calm - N/A Fog Fog
4:38 AM 33.8 °F - 33.8 °F 100% 29.99 in 0.2 mi Calm Calm - N/A Fog Fog
4:53 AM 35.1 °F - 34.0 °F 96% 29.98 in 0.5 mi Calm Calm - N/A Fog Fog
5:02 AM 33.8 °F - 33.8 °F 100% 29.99 in 0.2 mi Calm Calm - N/A Fog Fog
5:32 AM 35.6 °F - 35.6 °F 100% 29.99 in 0.5 mi Calm Calm - N/A Fog Fog
5:53 AM 34.0 °F - 34.0 °F 100% 29.99 in 0.5 mi Calm Calm - N/A Fog Fog
6:14 AM 33.8 °F - 33.8 °F 100% 30.01 in 0.2 mi Calm Calm - N/A Fog Fog
6:53 AM 34.0 °F 31.0 °F 34.0 °F 100% 30.02 in 0.2 mi NW 3.5 mph - N/A Fog Fog
7:53 AM 35.1 °F - 35.1 °F 100% 30.05 in 0.2 mi Calm Calm - N/A Fog Fog
8:24 AM 35.6 °F - 35.6 °F 100% 30.07 in 0.8 mi Calm Calm - N/A   Mist
8:26 AM 35.6 °F - 35.6 °F 100% 30.07 in 3.0 mi Calm Calm - N/A   Mostly Cloudy
8:53 AM 37.9 °F - 37.9 °F 100% 30.07 in 2.0 mi Calm Calm - N/A   Mostly Cloudy
9:53 AM 41.0 °F - 41.0 °F 100% 30.08 in 5.0 mi Calm Calm - N/A   Mostly Cloudy
10:00 AM 41.0 °F - 41.0 °F 100% 30.10 in 5.0 mi Calm Calm - N/A   Mostly Cloudy
10:53 AM 46.0 °F - 45.0 °F 96% 30.09 in 5.0 mi Calm Calm - N/A   Mostly Cloudy
11:53 AM 50.0 °F - 45.0 °F 83% 30.09 in 7.0 mi Calm Calm - N/A   Mostly Cloudy
12:53 PM 51.1 °F - 44.1 °F 77% 30.06 in 10.0 mi Calm Calm - N/A   Mostly Cloudy
1:53 PM 53.1 °F - 45.0 °F 74% 30.05 in 10.0 mi Calm Calm - N/A   Mostly Cloudy
2:53 PM 55.0 °F - 46.9 °F 74% 30.06 in 10.0 mi Calm Calm - N/A   Mostly Cloudy
3:53 PM 55.9 °F - 46.9 °F 72% 30.05 in 10.0 mi South 4.6 mph - N/A   Mostly Cloudy
4:53 PM 54.0 °F - 46.0 °F 75% 30.05 in 10.0 mi SW 4.6 mph - N/A   Mostly Cloudy
5:53 PM 51.1 °F - 45.0 °F 80% 30.07 in 10.0 mi SW 4.6 mph - N/A   Mostly Cloudy
6:53 PM 48.9 °F - 45.0 °F 86% 30.09 in 10.0 mi SE 4.6 mph - N/A   Overcast
7:53 PM 48.0 °F - 45.0 °F 89% 30.10 in 10.0 mi SE 4.6 mph - N/A   Overcast
8:53 PM 48.0 °F - 45.0 °F 89% 30.11 in 10.0 mi SSE 4.6 mph - N/A   Overcast
9:53 PM 48.0 °F - 45.0 °F 89% 30.12 in 10.0 mi Calm Calm - 0.00 in Rain Light Rain
10:41 PM 48.2 °F - 44.6 °F 87% 30.14 in 10.0 mi Calm Calm - 0.00 in   Overcast
10:53 PM 46.9 °F - 45.0 °F 93% 30.13 in 10.0 mi South 3.5 mph - 0.00 in   Overcast
11:53 PM 48.0 °F - 46.0 °F 93% 30.12 in 10.0 mi ESE 3.5 mph - N/A   Overcast